, AK

(GMT )
Portage Glacier

Weather History for PATO - November, 2012

Change the Weather History Date:

Monday, November 19, 2012

  Actual Average Record
Temperature  
Mean Temperature 13 °F -  
Max Temperature 18 °F - - ()
Min Temperature 7 °F - - ()
Degree Days  
Heating Degree Days 52    
Moisture  
Dew Point 10 °F    
Average Humidity 85    
Maximum Humidity 92    
Minimum Humidity 80    
Precipitation  
Precipitation 0.00 in - - ()
Sea Level Pressure  
Sea Level Pressure 29.41 in    
Wind  
Wind Speed 4 mph (West)    
Max Wind Speed 9 mph    
Max Gust Speed -    
Visibility 10 miles    
Events      
Averages and records for this station are not official NWS values.
T = Trace of Precipitation, MM = Missing Value Source: NWS Daily Summary

Daily Weather History Graph

Daily Weather History Graph

Search for Another Location

Airport or City:

Trip Planner

Search our weather history database for the weather conditions in past years. The results will help you decide how hot, cold, wet, or windy it might be!

Date:

Astronomy

Nov. 19, 2012 Rise Set
Actual Time 9:10 AM AKST 4:10 PM AKST
Civil Twilight 8:18 AM AKST 5:02 PM AKST
Nautical Twilight 7:23 AM AKST 5:57 PM AKST
Astronomical Twilight 6:33 AM AKST 6:47 PM AKST
Moon 1:34 PM AKST (11/19) 11:40 PM AKST (11/19)
Length of Visible Light 8h 44m
Length of Day
6h 59m
Waxing Crescent, 42% of the Moon is Illuminated
Nov 19
Waxing Crescent
Nov 20
First Quarter
Nov 28
Full
Dec 6
Last Quarter
Dec 12
New

Hourly Weather History & Observations

Time (AKST) Temp. Windchill Dew Point Humidity Pressure Visibility Wind Dir Wind Speed Gust Speed Precip Events Conditions
12:20 AM 12.0 °F - 7.0 °F 80% 29.31 in 10.0 mi Calm Calm - N/A   Mostly Cloudy
12:53 AM 15.1 °F - 12.9 °F 91% 29.33 in 9.0 mi Calm Calm - N/A   Overcast
1:53 AM 14.0 °F - 12.0 °F 92% 29.34 in 9.0 mi Calm Calm - N/A   Overcast
3:53 AM 18.0 °F 9.8 °F 15.1 °F 88% 29.36 in 9.0 mi West 5.8 mph - N/A   Overcast
4:53 AM 17.1 °F 10.0 °F 14.0 °F 88% 29.37 in 9.0 mi West 4.6 mph - N/A   Overcast
5:53 AM 16.0 °F 6.3 °F 12.9 °F 88% 29.38 in 9.0 mi West 6.9 mph - N/A   Overcast
6:53 AM 16.0 °F 7.4 °F 12.0 °F 84% 29.39 in 9.0 mi West 5.8 mph - N/A   Overcast
7:53 AM 16.0 °F 5.3 °F 12.0 °F 84% 29.40 in 9.0 mi West 8.1 mph - N/A   Overcast
8:53 AM 16.0 °F 5.3 °F 10.9 °F 81% 29.40 in 10.0 mi West 8.1 mph - N/A   Overcast
9:53 AM 15.1 °F 4.2 °F 10.0 °F 80% 29.41 in 10.0 mi West 8.1 mph - N/A   Overcast
10:53 AM 15.1 °F 4.2 °F 10.0 °F 80% 29.42 in 10.0 mi West 8.1 mph - N/A   Overcast
11:45 AM 15.1 °F 3.3 °F 10.0 °F 80% 29.41 in 10.0 mi West 9.2 mph - N/A   Scattered Clouds
11:53 AM 15.1 °F 4.2 °F 10.0 °F 80% 29.41 in 10.0 mi West 8.1 mph - N/A   Partly Cloudy
12:33 PM 15.1 °F 6.4 °F 10.9 °F 84% 29.40 in 10.0 mi West 5.8 mph - N/A   Mostly Cloudy
12:45 PM 15.1 °F 5.2 °F 10.9 °F 84% 29.40 in 10.0 mi West 6.9 mph - N/A   Scattered Clouds
12:53 PM 15.1 °F 5.2 °F 10.9 °F 84% 29.41 in 10.0 mi West 6.9 mph - N/A   Scattered Clouds
1:53 PM 14.0 °F 2.9 °F 10.0 °F 84% 29.41 in 10.0 mi West 8.1 mph - N/A   Clear
2:53 PM 15.1 °F 4.2 °F 10.0 °F 80% 29.41 in 10.0 mi WNW 8.1 mph - N/A   Clear
3:53 PM 14.0 °F 3.9 °F 10.9 °F 88% 29.41 in 10.0 mi West 6.9 mph - N/A   Partly Cloudy
4:53 PM 15.1 °F 4.2 °F 10.0 °F 80% 29.42 in 10.0 mi WNW 8.1 mph - N/A   Partly Cloudy
5:53 PM 14.0 °F 5.1 °F 9.0 °F 80% 29.43 in 10.0 mi Variable 5.8 mph - N/A   Clear
6:53 PM 12.0 °F 2.7 °F 8.1 °F 84% 29.45 in 10.0 mi West 5.8 mph - N/A   Clear
7:53 PM 10.9 °F - 8.1 °F 88% 29.47 in 10.0 mi Calm Calm - N/A   Partly Cloudy
8:53 PM 8.1 °F - 6.1 °F 92% 29.48 in 10.0 mi Calm Calm - N/A   Clear
9:53 PM 8.1 °F 1.4 °F 6.1 °F 92% 29.49 in 10.0 mi WNW 3.5 mph - N/A   Clear
10:53 PM 8.1 °F 1.4 °F 5.0 °F 87% 29.51 in 10.0 mi WNW 3.5 mph - N/A   Clear
11:53 PM 7.0 °F 0.1 °F 3.9 °F 87% 29.52 in 10.0 mi WNW 3.5 mph - N/A   Clear